Weather History for KIGQ - September, 2013

Change the Weather History Date:

Wednesday, September 11, 2013

  Actual Average (KMDW) Record (KMDW)
Temperature  
Mean Temperature 82 °F 69 °F  
Max Temperature 93 °F 77 °F 95 °F (1952)
Min Temperature 70 °F 60 °F 44 °F (1943)
Degree Days  
Heating Degree Days 0 1  
Month to date heating degree days 11  
Since 1 July heating degree days 16  
Cooling Degree Days 16 5  
Month to date cooling degree days 67  
Year to date cooling degree days 977  
Growing Degree Days 32 (Base 50)    
Moisture  
Dew Point 65 °F    
Average Humidity 65    
Maximum Humidity 87    
Minimum Humidity 36    
Precipitation  
Precipitation 0.00 in 0.11 in 4.16 in (2000)
Month to date precipitation 1.26  
Year to date precipitation 27.81  
Sea Level Pressure  
Sea Level Pressure 30.03 in    
Wind  
Wind Speed 6 mph (SW)    
Max Wind Speed 17 mph    
Max Gust Speed 23 mph    
Visibility 10 miles    
Events Rain    
T = Trace of Precipitation, MM = Missing Value Source: NWS Daily Summary

Daily Weather History Graph

Daily Weather History Graph

Search for Another Location

Airport or City:

Trip Planner

Search our weather history database for the weather conditions in past years. The results will help you decide how hot, cold, wet, or windy it might be!

Date:

Astronomy

Sep. 11, 2013 Rise Set
Actual Time 6:26 AM CDT 7:05 PM CDT
Civil Twilight 5:58 AM CDT 7:33 PM CDT
Nautical Twilight 5:25 AM CDT 8:06 PM CDT
Astronomical Twilight 4:51 AM CDT 8:40 PM CDT
Moon 12:59 PM CDT (9/11) 10:56 PM CDT (9/11)
Length of Visible Light 13h 35m
Length of Day
12h 39m
Waxing Crescent, 39% of the Moon is Illuminated
Sep 11
Waxing Crescent
Sep 12
First Quarter
Sep 19
Full
Sep 26
Last Quarter
Oct 4
New

Hourly Weather History & Observations

Time (CDT) Temp. Heat Index Dew Point Humidity Pressure Visibility Wind Dir Wind Speed Gust Speed Precip Events Conditions
12:15 AM 75.2 °F - 63.0 °F 66% 30.03 in 10.0 mi SSW 5.8 mph - N/A   Clear
12:35 AM 74.7 °F - 63.5 °F 68% 30.03 in 10.0 mi SSW 4.6 mph - N/A   Clear
12:55 AM 75.0 °F - 64.4 °F 69% 30.03 in 10.0 mi SW 6.9 mph - N/A   Clear
1:15 AM 75.2 °F - 65.3 °F 71% 30.03 in 10.0 mi SSW 5.8 mph - N/A   Clear
1:35 AM 75.0 °F - 66.2 °F 74% 30.03 in 10.0 mi SSW 4.6 mph - N/A   Clear
1:55 AM 74.5 °F - 66.6 °F 76% 30.03 in 10.0 mi SSW 5.8 mph - N/A   Clear
2:15 AM 73.2 °F - 66.7 °F 80% 30.03 in 10.0 mi SSW 5.8 mph - N/A   Clear
2:35 AM 73.4 °F - 67.1 °F 81% 30.03 in 10.0 mi SSW 5.8 mph - N/A   Clear
2:55 AM 73.0 °F - 67.3 °F 82% 30.03 in 10.0 mi SSW 6.9 mph - N/A   Clear
3:15 AM 73.0 °F - 67.5 °F 83% 30.03 in 10.0 mi SW 5.8 mph - N/A   Clear
3:35 AM 72.9 °F - 67.6 °F 84% 30.03 in 10.0 mi SW 5.8 mph - N/A   Clear
3:55 AM 72.3 °F - 68.0 °F 86% 30.03 in 7.0 mi SW 4.6 mph - N/A   Clear
4:15 AM 71.8 °F - 67.8 °F 87% 30.03 in 7.0 mi South 5.8 mph - N/A   Clear
4:35 AM 72.1 °F - 68.2 °F 87% 30.03 in 7.0 mi SW 4.6 mph - N/A   Clear
4:55 AM 72.3 °F - 67.8 °F 86% 30.03 in 10.0 mi SSW 5.8 mph - N/A   Clear
5:15 AM 72.1 °F - 67.6 °F 86% 30.03 in 10.0 mi SSW 5.8 mph - N/A   Clear
5:35 AM 72.3 °F - 68.0 °F 86% 30.04 in 7.0 mi SSW 8.1 mph - N/A   Clear
5:55 AM 72.3 °F - 68.0 °F 86% 30.04 in 7.0 mi SW 5.8 mph - N/A   Scattered Clouds
6:15 AM 72.1 °F - 67.5 °F 85% 30.05 in 10.0 mi SSW 4.6 mph - N/A   Clear
6:35 AM 71.6 °F - 67.3 °F 86% 30.05 in 7.0 mi SW 4.6 mph - N/A   Scattered Clouds
6:55 AM 71.8 °F - 67.1 °F 85% 30.06 in 7.0 mi SW 4.6 mph - N/A   Scattered Clouds
7:15 AM 73.4 °F - 67.1 °F 81% 30.06 in 10.0 mi SW 5.8 mph - N/A   Mostly Cloudy
7:35 AM 74.1 °F - 66.7 °F 78% 30.07 in 10.0 mi SW 6.9 mph - N/A   Mostly Cloudy
7:55 AM 75.6 °F - 66.4 °F 73% 30.07 in 10.0 mi SW 6.9 mph - N/A   Mostly Cloudy
8:15 AM 75.4 °F - 66.2 °F 73% 30.07 in 10.0 mi SW 5.8 mph - N/A   Scattered Clouds
8:35 AM 77.4 °F - 66.2 °F 68% 30.06 in 10.0 mi SW 6.9 mph - N/A   Scattered Clouds
8:55 AM 79.5 °F - 66.4 °F 64% 30.06 in 10.0 mi SW 6.9 mph - N/A   Scattered Clouds
9:15 AM 81.1 °F 82.9 °F 65.3 °F 58% 30.06 in 10.0 mi WSW 5.8 mph - N/A   Scattered Clouds
9:35 AM 82.6 °F 84.3 °F 64.8 °F 55% 30.06 in 10.0 mi West 8.1 mph - N/A   Clear
9:55 AM 83.7 °F 84.9 °F 63.5 °F 51% 30.06 in 10.0 mi West 8.1 mph - N/A   Clear
10:15 AM 83.8 °F 84.9 °F 63.3 °F 50% 30.06 in 10.0 mi West 8.1 mph - N/A   Clear
10:35 AM 84.4 °F 85.4 °F 63.3 °F 49% 30.06 in 10.0 mi WNW 4.6 mph - N/A   Clear
10:55 AM 85.3 °F 86.6 °F 64.2 °F 49% 30.06 in 10.0 mi West 5.8 mph - N/A   Clear
11:15 AM 85.5 °F 86.6 °F 63.9 °F 48% 30.05 in 10.0 mi WNW 3.5 mph - N/A   Clear
11:35 AM 86.2 °F 87.3 °F 64.0 °F 47% 30.04 in 10.0 mi Calm Calm - N/A   Clear
11:55 AM 87.1 °F 88.6 °F 64.4 °F 47% 30.04 in 10.0 mi WSW 3.5 mph - N/A   Clear
12:15 PM 88.9 °F 90.0 °F 63.9 °F 43% 30.03 in 10.0 mi West 6.9 mph - N/A   Clear
12:35 PM 90.0 °F 91.3 °F 63.9 °F 42% 30.02 in 10.0 mi SW 10.4 mph - N/A   Clear
12:55 PM 90.7 °F 92.1 °F 64.2 °F 41% 30.02 in 10.0 mi SW 10.4 mph - N/A   Clear
1:15 PM 90.7 °F 92.4 °F 64.4 °F 42% 30.01 in 10.0 mi SSW 10.4 mph - N/A   Clear
1:35 PM 91.9 °F 93.7 °F 64.4 °F 40% 30.01 in 10.0 mi SW 9.2 mph - N/A   Clear
1:55 PM 93.0 °F 94.2 °F 63.3 °F 37% 30.00 in 10.0 mi SW 11.5 mph 17.3 mph N/A   Clear
2:15 PM 92.5 °F 93.3 °F 62.6 °F 37% 30.00 in 10.0 mi West 16.1 mph - N/A   Clear
2:35 PM 92.5 °F 93.3 °F 63.0 °F 37% 30.00 in 10.0 mi West 12.7 mph 17.3 mph N/A   Scattered Clouds
2:55 PM 93.0 °F 93.8 °F 62.1 °F 36% 29.99 in 10.0 mi WSW 13.8 mph 23.0 mph N/A   Mostly Cloudy
3:15 PM 91.4 °F 92.1 °F 62.6 °F 38% 29.99 in 10.0 mi West 17.3 mph 21.9 mph N/A   Mostly Cloudy
3:35 PM 92.8 °F 93.5 °F 62.6 °F 36% 29.99 in 10.0 mi WNW 12.7 mph 20.7 mph N/A   Mostly Cloudy
3:55 PM 81.5 °F 83.4 °F 65.5 °F 58% 30.00 in 10.0 mi NNE 11.5 mph 21.9 mph N/A   Mostly Cloudy
4:15 PM 80.8 °F 82.5 °F 64.8 °F 58% 30.01 in 10.0 mi NNE 10.4 mph - N/A   Mostly Cloudy
4:35 PM 80.8 °F 82.4 °F 64.0 °F 57% 30.00 in 10.0 mi North 10.4 mph - N/A   Scattered Clouds
4:55 PM 80.2 °F 81.9 °F 64.4 °F 58% 30.00 in 10.0 mi North 3.5 mph - N/A   Clear
5:15 PM 79.7 °F - 64.8 °F 60% 30.01 in 10.0 mi North 5.8 mph - N/A   Clear
5:35 PM 79.0 °F - 62.4 °F 57% 30.01 in 10.0 mi NNE 3.5 mph - N/A   Scattered Clouds
5:55 PM 78.8 °F - 61.9 °F 56% 30.01 in 10.0 mi Calm Calm - N/A   Scattered Clouds
6:15 PM 79.3 °F - 62.8 °F 57% 30.01 in 10.0 mi Calm Calm - N/A Rain Light Rain
6:35 PM 79.0 °F - 63.1 °F 58% 30.01 in 10.0 mi Calm Calm - N/A   Scattered Clouds
6:55 PM 78.6 °F - 63.0 °F 59% 30.01 in 10.0 mi NNE 3.5 mph - N/A   Scattered Clouds
7:15 PM 77.9 °F - 62.8 °F 60% 30.01 in 10.0 mi ENE 5.8 mph - N/A   Scattered Clouds
7:35 PM 77.2 °F - 61.7 °F 59% 30.01 in 10.0 mi Calm Calm - N/A   Scattered Clouds
7:55 PM 75.2 °F - 61.7 °F 63% 30.01 in 10.0 mi East 3.5 mph - N/A   Scattered Clouds
8:15 PM 74.5 °F - 62.1 °F 65% 30.01 in 10.0 mi Calm Calm - N/A   Scattered Clouds
8:35 PM 72.3 °F - 62.8 °F 72% 30.01 in 10.0 mi SSE 3.5 mph - N/A   Scattered Clouds
8:55 PM 73.0 °F - 62.4 °F 69% 30.01 in 10.0 mi SSE 3.5 mph - N/A   Scattered Clouds
9:15 PM 72.9 °F - 62.6 °F 70% 30.01 in 10.0 mi Calm Calm - N/A   Mostly Cloudy
9:35 PM 72.3 °F - 63.1 °F 73% 30.01 in 10.0 mi Calm Calm - N/A   Mostly Cloudy
9:55 PM 71.6 °F - 63.3 °F 75% 30.00 in 10.0 mi South 3.5 mph - N/A   Scattered Clouds
10:15 PM 72.7 °F - 63.7 °F 73% 30.00 in 10.0 mi South 4.6 mph - N/A   Scattered Clouds
10:35 PM 71.2 °F - 64.4 °F 79% 30.01 in 10.0 mi Calm Calm - N/A   Scattered Clouds
10:55 PM 70.9 °F - 64.4 °F 80% 30.00 in 10.0 mi South 4.6 mph - N/A   Mostly Cloudy
11:15 PM 72.0 °F - 64.8 °F 78% 29.99 in 10.0 mi Calm Calm - N/A   Overcast
11:35 PM 72.0 °F - 65.3 °F 79% 30.00 in 10.0 mi South 5.8 mph - N/A   Overcast
11:55 PM 73.8 °F - 65.7 °F 76% 30.01 in 10.0 mi SW 8.1 mph - N/A   Overcast